Time,TemperatureF,DewpointF,PressureIn,WindDirection,WindDirectionDegrees,WindSpeedMPH,WindSpeedGustMPH,Humidity,HourlyPrecipIn,Conditions,Clouds,dailyrainin,SoftwareType,DateUTC
2013-02-21 17:01:00,23.0,18.0,29.95,ESE,122,5.0,11.0,82,0.55,,,0.55,,2013-02-21 23:01:00,
2013-02-21 17:11:00,23.0,18.0,29.95,ESE,122,5.0,11.0,82,0.55,,,0.55,,2013-02-21 23:11:00,
2013-02-21 17:21:00,24.0,20.0,29.95,SE,138,6.0,10.0,83,0.55,,,0.55,,2013-02-21 23:21:00,
2013-02-21 17:32:00,24.0,20.0,29.95,SE,124,7.0,10.0,85,0.55,,,0.55,,2013-02-21 23:32:00,
2013-02-21 17:41:00,24.0,20.0,29.95,SE,124,7.0,10.0,85,0.55,,,0.55,,2013-02-21 23:41:00,
2013-02-21 17:52:00,24.0,20.0,29.92,SE,138,6.0,10.0,85,0.55,,,0.55,,2013-02-21 23:52:00,
2013-02-21 18:01:00,24.0,21.0,29.92,East,94,3.0,13.0,87,0.55,,,0.55,,2013-02-22 00:01:00,
2013-02-21 18:11:00,24.0,21.0,29.92,East,94,3.0,13.0,87,0.55,,,0.55,,2013-02-22 00:11:00,
2013-02-21 18:21:00,24.0,21.0,29.92,East,91,6.0,12.0,87,0.00,,,0.55,,2013-02-22 00:21:00,
2013-02-21 18:32:00,24.0,21.0,29.92,ESE,103,5.0,11.0,88,0.00,,,0.55,,2013-02-22 00:32:00,
2013-02-21 18:41:00,24.0,21.0,29.92,ESE,103,5.0,11.0,88,0.00,,,0.55,,2013-02-22 00:41:00,
2013-02-21 18:51:00,24.0,21.0,29.89,East,80,5.0,17.0,88,0.00,,,0.55,,2013-02-22 00:51:00,
2013-02-21 19:01:00,24.0,21.0,29.89,SE,127,7.0,11.0,88,0.00,,,0.55,,2013-02-22 01:01:00,
2013-02-21 19:11:00,24.0,21.0,29.89,East,84,4.0,13.0,88,0.00,,,0.55,,2013-02-22 01:11:00,
2013-02-21 19:21:00,24.0,21.0,29.89,East,84,4.0,13.0,88,0.00,,,0.55,,2013-02-22 01:21:00,
2013-02-21 19:32:00,24.0,21.0,29.89,East,100,7.0,11.0,87,0.00,,,0.55,,2013-02-22 01:32:00,
2013-02-21 19:42:00,24.0,20.0,29.89,NE,52,3.0,11.0,86,0.00,,,0.55,,2013-02-22 01:42:00,
2013-02-21 19:51:00,24.0,20.0,29.89,NE,52,3.0,11.0,86,0.00,,,0.55,,2013-02-22 01:51:00,
2013-02-21 20:02:00,24.0,20.0,29.89,East,83,6.0,12.0,86,0.00,,,0.55,,2013-02-22 02:02:00,
2013-02-21 20:11:00,24.0,20.0,29.89,ESE,115,5.0,10.0,86,0.00,,,0.55,,2013-02-22 02:11:00,
2013-02-21 20:21:00,24.0,20.0,29.89,ESE,115,5.0,10.0,86,0.00,,,0.55,,2013-02-22 02:21:00,
2013-02-21 20:31:00,24.0,20.0,29.89,SW,217,0.0,13.0,86,0.00,,,0.55,,2013-02-22 02:31:00,
2013-02-21 20:42:00,24.0,21.0,29.89,SE,126,7.0,13.0,87,0.00,,,0.55,,2013-02-22 02:42:00,
2013-02-21 20:52:00,24.0,21.0,29.89,SE,126,7.0,13.0,87,0.00,,,0.55,,2013-02-22 02:52:00,
2013-02-21 21:01:00,23.0,20.0,29.89,East,95,6.0,10.0,87,0.00,,,0.55,,2013-02-22 03:01:00,
2013-02-21 21:11:00,23.0,20.0,29.89,East,91,4.0,8.0,87,0.00,,,0.55,,2013-02-22 03:11:00,
2013-02-21 21:21:00,23.0,20.0,29.89,East,91,4.0,8.0,87,0.00,,,0.55,,2013-02-22 03:21:00,
2013-02-21 21:32:00,23.0,20.0,29.89,ESE,112,5.0,8.0,87,0.00,,,0.55,,2013-02-22 03:32:00,
2013-02-21 21:41:00,23.0,20.0,29.89,ESE,112,5.0,8.0,87,0.00,,,0.55,,2013-02-22 03:41:00,
2013-02-21 21:51:00,23.0,20.0,29.89,East,83,3.0,10.0,87,0.00,,,0.55,,2013-02-22 03:51:00,
2013-02-21 22:01:00,22.0,19.0,29.86,ENE,78,0.0,9.0,88,0.00,,,0.55,,2013-02-22 04:01:00,
2013-02-21 22:11:00,23.0,20.0,29.86,SSE,153,4.0,8.0,89,0.00,,,0.55,,2013-02-22 04:11:00,
2013-02-21 22:21:00,23.0,20.0,29.86,SSE,153,4.0,8.0,89,0.00,,,0.55,,2013-02-22 04:21:00,
2013-02-21 22:32:00,23.0,20.0,29.86,East,96,5.0,8.0,89,0.00,,,0.55,,2013-02-22 04:32:00,
2013-02-21 22:42:00,23.0,20.0,29.86,East,85,5.0,9.0,89,0.00,,,0.55,,2013-02-22 04:42:00,
2013-02-21 22:51:00,23.0,20.0,29.86,East,85,5.0,9.0,89,0.00,,,0.55,,2013-02-22 04:51:00,
2013-02-21 23:01:00,23.0,21.0,29.86,ENE,77,4.0,10.0,90,0.00,,,0.55,,2013-02-22 05:01:00,
2013-02-21 23:12:00,23.0,21.0,29.83,ENE,68,7.0,10.0,90,0.00,,,0.55,,2013-02-22 05:12:00,
2013-02-21 23:22:00,23.0,21.0,29.83,ENE,68,7.0,10.0,90,0.00,,,0.55,,2013-02-22 05:22:00,
2013-02-21 23:32:00,23.0,21.0,29.83,East,89,3.0,8.0,90,0.00,,,0.55,,2013-02-22 05:32:00,
2013-02-21 23:41:00,23.0,21.0,29.83,NE,55,3.0,8.0,90,0.00,,,0.55,,2013-02-22 05:41:00,
2013-02-21 23:52:00,23.0,21.0,29.83,NE,55,3.0,8.0,90,0.00,,,0.55,,2013-02-22 05:52:00,